Time,TemperatureF,DewpointF,PressureIn,WindDirection,WindDirectionDegrees,WindSpeedMPH,WindSpeedGustMPH,Humidity,HourlyPrecipIn,Conditions,Clouds,dailyrainin,SoftwareType,DateUTC
2013-03-10 00:00:00,67.5,60.4,30.13,NE,51,9.0,9.0,78,0.00,,,0.00,Wunderground v.1.15,2013-03-10 05:00:00,
2013-03-10 00:05:00,67.4,60.3,30.13,NE,49,8.0,9.0,78,0.00,,,0.00,Wunderground v.1.15,2013-03-10 05:05:00,
2013-03-10 00:10:00,67.4,60.3,30.13,NE,54,7.0,8.0,78,0.00,,,0.00,Wunderground v.1.15,2013-03-10 05:10:00,
2013-03-10 00:15:00,67.4,60.3,30.12,East,94,8.0,8.0,78,0.00,,,0.00,Wunderground v.1.15,2013-03-10 05:15:00,
2013-03-10 00:20:00,67.4,60.7,30.12,ENE,62,8.0,9.0,79,0.00,,,0.00,Wunderground v.1.15,2013-03-10 05:20:00,
2013-03-10 00:25:00,67.3,60.6,30.12,NE,36,8.0,9.0,79,0.00,,,0.00,Wunderground v.1.15,2013-03-10 05:25:00,
2013-03-10 00:30:00,67.3,60.6,30.12,ENE,62,8.0,10.0,79,0.00,,,0.00,Wunderground v.1.15,2013-03-10 05:30:00,
2013-03-10 00:40:00,67.3,60.6,30.11,ENE,57,9.0,9.0,79,0.00,,,0.00,Wunderground v.1.15,2013-03-10 05:40:00,
2013-03-10 00:45:00,67.2,60.5,30.11,East,84,8.0,9.0,79,0.00,,,0.00,Wunderground v.1.15,2013-03-10 05:45:00,
2013-03-10 00:50:00,67.2,60.8,30.11,ENE,63,7.0,8.0,80,0.00,,,0.00,Wunderground v.1.15,2013-03-10 05:50:00,
2013-03-10 01:00:00,67.2,60.8,30.10,East,87,7.0,7.0,80,0.00,,,0.00,Wunderground v.1.15,2013-03-10 06:00:00,
2013-03-10 01:10:00,67.1,61.1,30.10,NE,52,7.0,8.0,81,0.00,,,0.00,Wunderground v.1.15,2013-03-10 06:10:00,
2013-03-10 01:15:00,67.1,61.1,30.09,ESE,108,6.0,8.0,81,0.00,,,0.00,Wunderground v.1.15,2013-03-10 06:15:00,
2013-03-10 01:25:00,67.0,61.0,30.09,ENE,66,8.0,8.0,81,0.00,,,0.00,Wunderground v.1.15,2013-03-10 06:25:00,
2013-03-10 01:30:00,66.9,60.9,30.09,NE,44,8.0,8.0,81,0.00,,,0.00,Wunderground v.1.15,2013-03-10 06:30:00,
2013-03-10 01:35:00,66.8,60.8,30.08,ENE,66,7.0,8.0,81,0.00,,,0.00,Wunderground v.1.15,2013-03-10 06:35:00,
2013-03-10 01:45:00,66.8,61.1,30.07,East,82,6.0,8.0,82,0.00,,,0.00,Wunderground v.1.15,2013-03-10 06:45:00,
2013-03-10 01:50:00,66.7,61.0,30.07,ENE,63,7.0,12.0,82,0.00,,,0.00,Wunderground v.1.15,2013-03-10 06:50:00,
2013-03-10 03:00:00,66.6,60.9,30.06,ENE,57,8.0,9.0,82,0.00,,,0.00,Wunderground v.1.15,2013-03-10 07:00:00,
2013-03-10 03:05:00,66.7,61.0,30.06,East,88,8.0,9.0,82,0.00,,,0.00,Wunderground v.1.15,2013-03-10 07:05:00,
2013-03-10 03:15:00,66.6,60.9,30.05,ENE,66,7.0,9.0,82,0.00,,,0.00,Wunderground v.1.15,2013-03-10 07:15:00,
2013-03-10 03:20:00,66.6,60.9,30.05,NE,54,8.0,8.0,82,0.00,,,0.00,Wunderground v.1.15,2013-03-10 07:20:00,
2013-03-10 03:30:00,66.7,61.0,30.05,ENE,72,7.0,9.0,82,0.00,,,0.00,Wunderground v.1.15,2013-03-10 07:30:00,
2013-03-10 03:35:00,66.7,61.0,30.05,NE,46,7.0,9.0,82,0.00,,,0.00,Wunderground v.1.15,2013-03-10 07:35:00,
2013-03-10 03:40:00,66.7,61.0,30.05,ENE,70,6.0,8.0,82,0.00,,,0.00,Wunderground v.1.15,2013-03-10 07:40:00,
2013-03-10 03:50:00,66.7,61.4,30.05,ENE,69,5.0,5.0,83,0.00,,,0.00,Wunderground v.1.15,2013-03-10 07:50:00,
2013-03-10 04:00:00,66.7,61.4,30.05,NE,40,5.0,6.0,83,0.00,,,0.00,Wunderground v.1.15,2013-03-10 08:00:00,
2013-03-10 04:05:00,66.6,61.3,30.05,NE,53,5.0,6.0,83,0.00,,,0.00,Wunderground v.1.15,2013-03-10 08:05:00,
2013-03-10 04:10:00,66.5,61.2,30.06,NE,44,5.0,5.0,83,0.00,,,0.00,Wunderground v.1.15,2013-03-10 08:10:00,
2013-03-10 04:20:00,66.3,61.0,30.05,East,79,4.0,4.0,83,0.00,,,0.00,Wunderground v.1.15,2013-03-10 08:20:00,
2013-03-10 04:25:00,66.1,60.4,30.06,East,83,4.0,5.0,82,0.00,,,0.00,Wunderground v.1.15,2013-03-10 08:25:00,
2013-03-10 04:35:00,65.8,59.5,30.06,NE,55,5.0,6.0,80,0.00,,,0.00,Wunderground v.1.15,2013-03-10 08:35:00,
2013-03-10 04:40:00,65.9,59.6,30.05,ENE,76,5.0,7.0,80,0.00,,,0.00,Wunderground v.1.15,2013-03-10 08:40:00,
2013-03-10 04:50:00,66.0,59.3,30.05,ENE,65,5.0,6.0,79,0.00,,,0.00,Wunderground v.1.15,2013-03-10 08:50:00,
2013-03-10 04:55:00,66.0,59.3,30.05,ENE,59,5.0,6.0,79,0.00,,,0.00,Wunderground v.1.15,2013-03-10 08:55:00,
2013-03-10 05:00:00,66.1,59.0,30.05,ENE,75,5.0,5.0,78,0.00,,,0.00,Wunderground v.1.15,2013-03-10 09:00:00,
2013-03-10 05:10:00,66.3,59.2,30.05,ENE,77,5.0,7.0,78,0.00,,,0.00,Wunderground v.1.15,2013-03-10 09:10:00,
2013-03-10 05:20:00,66.4,59.3,30.06,NNE,33,4.0,4.0,78,0.00,,,0.00,Wunderground v.1.15,2013-03-10 09:20:00,
2013-03-10 05:25:00,66.5,59.8,30.06,NE,48,4.0,4.0,79,0.00,,,0.00,Wunderground v.1.15,2013-03-10 09:25:00,
2013-03-10 05:30:00,66.5,59.8,30.06,SSE,158,4.0,7.0,79,0.00,,,0.00,Wunderground v.1.15,2013-03-10 09:30:00,
2013-03-10 05:35:00,66.4,59.7,30.06,NE,41,4.0,7.0,79,0.00,,,0.00,Wunderground v.1.15,2013-03-10 09:35:00,
2013-03-10 05:40:00,66.4,59.7,30.06,ENE,72,4.0,4.0,79,0.00,,,0.00,Wunderground v.1.15,2013-03-10 09:40:00,
2013-03-10 05:50:00,66.3,59.9,30.05,ENE,67,3.0,3.0,80,0.00,,,0.00,Wunderground v.1.15,2013-03-10 09:50:00,
2013-03-10 05:55:00,66.3,59.9,30.05,NE,46,3.0,4.0,80,0.00,,,0.00,Wunderground v.1.15,2013-03-10 09:55:00,
2013-03-10 06:00:00,66.3,60.3,30.05,ENE,60,4.0,5.0,81,0.00,,,0.00,Wunderground v.1.15,2013-03-10 10:00:00,
2013-03-10 06:10:00,66.3,60.3,30.04,ENE,63,4.0,4.0,81,0.00,,,0.00,Wunderground v.1.15,2013-03-10 10:10:00,
2013-03-10 06:15:00,66.3,60.6,30.05,ESE,102,4.0,6.0,82,0.00,,,0.00,Wunderground v.1.15,2013-03-10 10:15:00,
2013-03-10 06:20:00,66.4,60.4,30.05,East,81,5.0,7.0,81,0.00,,,0.00,Wunderground v.1.15,2013-03-10 10:20:00,
2013-03-10 06:30:00,66.6,59.9,30.05,ESE,102,7.0,8.0,79,0.00,,,0.00,Wunderground v.1.15,2013-03-10 10:30:00,
2013-03-10 06:35:00,66.8,59.7,30.05,East,96,8.0,8.0,78,0.00,,,0.00,Wunderground v.1.15,2013-03-10 10:35:00,
2013-03-10 06:45:00,67.2,59.4,30.05,ESE,106,8.0,9.0,76,0.00,,,0.00,Wunderground v.1.15,2013-03-10 10:45:00,
2013-03-10 06:50:00,67.5,59.7,30.05,ESE,121,8.0,8.0,76,0.00,,,0.00,Wunderground v.1.15,2013-03-10 10:50:00,
2013-03-10 07:00:00,67.6,59.4,30.05,East,100,8.0,8.0,75,0.00,,,0.00,Wunderground v.1.15,2013-03-10 11:00:00,
2013-03-10 07:05:00,67.7,59.5,30.05,SE,125,8.0,9.0,75,0.00,,,0.00,Wunderground v.1.15,2013-03-10 11:05:00,
2013-03-10 07:15:00,67.6,58.6,30.06,ESE,111,8.0,8.0,73,0.00,,,0.00,Wunderground v.1.15,2013-03-10 11:15:00,
2013-03-10 07:20:00,67.6,58.6,30.06,East,88,7.0,7.0,73,0.00,,,0.00,Wunderground v.1.15,2013-03-10 11:20:00,
2013-03-10 07:25:00,67.6,58.6,30.06,ESE,110,6.0,7.0,73,0.00,,,0.00,Wunderground v.1.15,2013-03-10 11:25:00,
2013-03-10 07:35:00,67.7,59.1,30.06,East,87,7.0,10.0,74,0.00,,,0.00,Wunderground v.1.15,2013-03-10 11:35:00,
2013-03-10 07:40:00,67.7,58.7,30.06,ESE,105,8.0,8.0,73,0.00,,,0.00,Wunderground v.1.15,2013-03-10 11:40:00,
2013-03-10 07:50:00,67.8,58.8,30.06,ENE,69,8.0,8.0,73,0.00,,,0.00,Wunderground v.1.15,2013-03-10 11:50:00,
2013-03-10 08:00:00,67.9,58.5,30.07,ESE,118,8.0,14.0,72,0.00,,,0.00,Wunderground v.1.15,2013-03-10 12:00:00,
2013-03-10 08:05:00,67.9,58.1,30.07,ESE,111,9.0,14.0,71,0.00,,,0.00,Wunderground v.1.15,2013-03-10 12:05:00,
2013-03-10 08:10:00,68.1,58.7,30.07,East,94,8.0,8.0,72,0.00,,,0.00,Wunderground v.1.15,2013-03-10 12:10:00,
2013-03-10 08:20:00,68.8,59.0,30.07,NE,39,7.0,9.0,71,0.00,,,0.00,Wunderground v.1.15,2013-03-10 12:20:00,
2013-03-10 08:25:00,69.1,58.5,30.07,East,100,8.0,9.0,69,0.00,,,0.00,Wunderground v.1.15,2013-03-10 12:25:00,
2013-03-10 08:30:00,69.4,58.8,30.07,East,82,8.0,11.0,69,0.00,,,0.00,Wunderground v.1.15,2013-03-10 12:30:00,
2013-03-10 08:40:00,69.2,59.0,30.07,ESE,118,8.0,8.0,70,0.00,,,0.00,Wunderground v.1.15,2013-03-10 12:40:00,
2013-03-10 08:45:00,69.4,59.6,30.07,East,101,7.0,8.0,71,0.00,,,0.00,Wunderground v.1.15,2013-03-10 12:45:00,
2013-03-10 08:55:00,70.2,60.0,30.06,ESE,117,6.0,8.0,70,0.00,,,0.00,Wunderground v.1.15,2013-03-10 12:55:00,
2013-03-10 09:00:00,69.9,59.7,30.06,ESE,107,8.0,13.0,70,0.00,,,0.00,Wunderground v.1.15,2013-03-10 13:00:00,
2013-03-10 09:05:00,70.0,60.2,30.06,ENE,71,8.0,13.0,71,0.00,,,0.00,Wunderground v.1.15,2013-03-10 13:05:00,
2013-03-10 09:15:00,70.1,59.0,30.07,ESE,106,8.0,10.0,68,0.00,,,0.00,Wunderground v.1.15,2013-03-10 13:15:00,
2013-03-10 09:20:00,70.9,59.4,30.07,ENE,63,9.0,9.0,67,0.00,,,0.00,Wunderground v.1.15,2013-03-10 13:20:00,
2013-03-10 09:30:00,70.8,59.3,30.07,SE,135,9.0,9.0,67,0.00,,,0.00,Wunderground v.1.15,2013-03-10 13:30:00,
2013-03-10 09:35:00,71.1,60.0,30.07,ESE,109,9.0,9.0,68,0.00,,,0.00,Wunderground v.1.15,2013-03-10 13:35:00,
2013-03-10 09:40:00,71.7,59.3,30.08,East,96,10.0,12.0,65,0.00,,,0.00,Wunderground v.1.15,2013-03-10 13:40:00,
2013-03-10 09:50:00,72.3,59.9,30.08,ESE,113,9.0,9.0,65,0.00,,,0.00,Wunderground v.1.15,2013-03-10 13:50:00,
2013-03-10 09:55:00,72.2,59.8,30.08,ENE,71,9.0,9.0,65,0.00,,,0.00,Wunderground v.1.15,2013-03-10 13:55:00,
2013-03-10 10:00:00,72.6,60.6,30.08,ESE,122,9.0,12.0,66,0.00,,,0.00,Wunderground v.1.15,2013-03-10 14:00:00,
2013-03-10 10:10:00,72.6,59.7,30.08,East,88,8.0,13.0,64,0.00,,,0.00,Wunderground v.1.15,2013-03-10 14:10:00,
2013-03-10 10:15:00,71.9,59.1,30.09,East,98,9.0,13.0,64,0.00,,,0.00,Wunderground v.1.15,2013-03-10 14:15:00,
2013-03-10 10:25:00,71.7,59.3,30.09,NE,52,9.0,13.0,65,0.00,,,0.00,Wunderground v.1.15,2013-03-10 14:25:00,
2013-03-10 10:30:00,72.8,60.3,30.09,East,84,9.0,18.0,65,0.00,,,0.00,Wunderground v.1.15,2013-03-10 14:30:00,
2013-03-10 10:40:00,73.8,60.0,30.09,ESE,107,9.0,10.0,62,0.00,,,0.00,Wunderground v.1.15,2013-03-10 14:40:00,
2013-03-10 10:45:00,73.6,60.7,30.08,ESE,116,9.0,11.0,64,0.00,,,0.00,Wunderground v.1.15,2013-03-10 14:45:00,
2013-03-10 10:50:00,72.4,59.5,30.09,East,96,10.0,12.0,64,0.00,,,0.00,Wunderground v.1.15,2013-03-10 14:50:00,
2013-03-10 11:00:00,72.6,59.7,30.09,East,91,10.0,12.0,64,0.00,,,0.00,Wunderground v.1.15,2013-03-10 15:00:00,
2013-03-10 11:10:00,73.4,60.0,30.09,East,88,11.0,11.0,63,0.00,,,0.00,Wunderground v.1.15,2013-03-10 15:10:00,
2013-03-10 11:15:00,73.6,59.8,30.09,East,84,12.0,14.0,62,0.00,,,0.00,Wunderground v.1.15,2013-03-10 15:15:00,
2013-03-10 11:25:00,73.7,58.9,30.09,ENE,68,11.0,15.0,60,0.00,,,0.00,Wunderground v.1.15,2013-03-10 15:25:00,
2013-03-10 11:30:00,74.3,60.0,30.09,SE,127,11.0,11.0,61,0.00,,,0.00,Wunderground v.1.15,2013-03-10 15:30:00,
2013-03-10 11:35:00,74.2,59.4,30.09,ESE,117,10.0,11.0,60,0.00,,,0.00,Wunderground v.1.15,2013-03-10 15:35:00,
2013-03-10 11:45:00,74.5,59.2,30.09,East,91,11.0,11.0,59,0.00,,,0.00,Wunderground v.1.15,2013-03-10 15:45:00,
2013-03-10 11:50:00,74.7,59.4,30.09,East,84,10.0,16.0,59,0.00,,,0.00,Wunderground v.1.15,2013-03-10 15:50:00,
2013-03-10 11:55:00,74.4,60.1,30.09,ENE,66,11.0,16.0,61,0.00,,,0.00,Wunderground v.1.15,2013-03-10 15:55:00,
2013-03-10 12:05:00,74.5,59.7,30.09,East,93,10.0,13.0,60,0.00,,,0.00,Wunderground v.1.15,2013-03-10 16:05:00,
2013-03-10 12:10:00,75.4,59.6,30.10,East,92,11.0,11.0,58,0.00,,,0.00,Wunderground v.1.15,2013-03-10 16:10:00,
2013-03-10 12:20:00,74.8,59.0,30.10,ESE,104,11.0,11.0,58,0.00,,,0.00,Wunderground v.1.15,2013-03-10 16:20:00,
2013-03-10 12:25:00,74.8,60.0,30.09,ESE,107,10.0,11.0,60,0.00,,,0.00,Wunderground v.1.15,2013-03-10 16:25:00,
2013-03-10 12:35:00,74.9,60.5,30.09,East,100,10.0,10.0,61,0.00,,,0.00,Wunderground v.1.15,2013-03-10 16:35:00,
2013-03-10 12:40:00,74.9,61.0,30.09,East,88,9.0,13.0,62,0.00,,,0.00,Wunderground v.1.15,2013-03-10 16:40:00,
2013-03-10 12:50:00,74.8,60.4,30.08,East,98,9.0,9.0,61,0.00,,,0.00,Wunderground v.1.15,2013-03-10 16:50:00,
2013-03-10 12:55:00,75.5,61.6,30.08,ESE,114,9.0,13.0,62,0.00,,,0.00,Wunderground v.1.15,2013-03-10 16:55:00,
2013-03-10 13:05:00,75.0,60.6,30.08,ESE,112,9.0,10.0,61,0.00,,,0.00,Wunderground v.1.15,2013-03-10 17:05:00,
2013-03-10 13:15:00,75.3,60.0,30.07,East,88,10.0,10.0,59,0.00,,,0.00,Wunderground v.1.15,2013-03-10 17:15:00,
2013-03-10 13:20:00,75.7,60.4,30.07,ENE,73,10.0,10.0,59,0.00,,,0.00,Wunderground v.1.15,2013-03-10 17:20:00,
2013-03-10 13:30:00,76.5,61.1,30.08,ESE,112,9.0,13.0,59,0.00,,,0.00,Wunderground v.1.15,2013-03-10 17:30:00,
2013-03-10 13:35:00,75.7,61.3,30.07,East,89,9.0,13.0,61,0.00,,,0.00,Wunderground v.1.15,2013-03-10 17:35:00,
2013-03-10 13:40:00,74.6,60.7,30.07,ENE,73,10.0,10.0,62,0.00,,,0.00,Wunderground v.1.15,2013-03-10 17:40:00,
2013-03-10 13:50:00,75.9,61.5,30.07,East,83,9.0,9.0,61,0.00,,,0.00,Wunderground v.1.15,2013-03-10 17:50:00,
2013-03-10 13:55:00,75.8,60.4,30.07,NE,45,9.0,9.0,59,0.00,,,0.00,Wunderground v.1.15,2013-03-10 17:55:00,
2013-03-10 14:00:00,76.5,61.6,30.07,East,99,10.0,10.0,60,0.00,,,0.00,Wunderground v.1.15,2013-03-10 18:00:00,
2013-03-10 14:10:00,74.7,60.8,30.06,ESE,118,10.0,10.0,62,0.00,,,0.00,Wunderground v.1.15,2013-03-10 18:10:00,
2013-03-10 14:15:00,74.4,61.4,30.06,ENE,73,9.0,10.0,64,0.00,,,0.00,Wunderground v.1.15,2013-03-10 18:15:00,
2013-03-10 14:25:00,76.2,61.8,30.06,ESE,122,10.0,11.0,61,0.00,,,0.00,Wunderground v.1.15,2013-03-10 18:25:00,
2013-03-10 14:30:00,76.7,61.3,30.06,East,87,10.0,10.0,59,0.00,,,0.00,Wunderground v.1.15,2013-03-10 18:30:00,
2013-03-10 14:40:00,76.1,60.7,30.06,East,84,10.0,10.0,59,0.00,,,0.00,Wunderground v.1.15,2013-03-10 18:40:00,
2013-03-10 14:45:00,76.4,61.0,30.06,East,80,9.0,12.0,59,0.00,,,0.00,Wunderground v.1.15,2013-03-10 18:45:00,
2013-03-10 14:50:00,76.6,61.7,30.06,East,96,10.0,11.0,60,0.00,,,0.00,Wunderground v.1.15,2013-03-10 18:50:00,
2013-03-10 15:00:00,77.0,62.0,30.05,ESE,116,9.0,11.0,60,0.00,,,0.00,Wunderground v.1.15,2013-03-10 19:00:00,
2013-03-10 15:10:00,76.4,62.4,30.05,East,82,9.0,9.0,62,0.00,,,0.00,Wunderground v.1.15,2013-03-10 19:10:00,
2013-03-10 15:15:00,76.9,62.4,30.04,East,93,9.0,11.0,61,0.00,,,0.00,Wunderground v.1.15,2013-03-10 19:15:00,
2013-03-10 15:25:00,76.2,62.2,30.04,East,84,10.0,10.0,62,0.00,,,0.00,Wunderground v.1.15,2013-03-10 19:25:00,
2013-03-10 15:30:00,76.7,62.7,30.04,East,82,10.0,12.0,62,0.00,,,0.00,Wunderground v.1.15,2013-03-10 19:30:00,
2013-03-10 15:40:00,76.7,61.8,30.03,ESE,120,10.0,10.0,60,0.00,,,0.00,Wunderground v.1.15,2013-03-10 19:40:00,
2013-03-10 15:45:00,76.0,62.0,30.03,ESE,102,10.0,15.0,62,0.00,,,0.00,Wunderground v.1.15,2013-03-10 19:45:00,
2013-03-10 15:55:00,75.8,61.4,30.03,SE,143,11.0,15.0,61,0.00,,,0.00,Wunderground v.1.15,2013-03-10 19:55:00,
2013-03-10 16:00:00,76.1,61.7,30.03,East,86,10.0,10.0,61,0.00,,,0.00,Wunderground v.1.15,2013-03-10 20:00:00,
2013-03-10 16:10:00,76.4,61.0,30.02,SE,130,11.0,11.0,59,0.00,,,0.00,Wunderground v.1.15,2013-03-10 20:10:00,
2013-03-10 16:20:00,76.6,62.1,30.02,East,91,10.0,10.0,61,0.00,,,0.00,Wunderground v.1.15,2013-03-10 20:20:00,
2013-03-10 16:25:00,76.5,61.6,30.02,ENE,65,10.0,10.0,60,0.00,,,0.00,Wunderground v.1.15,2013-03-10 20:25:00,
2013-03-10 16:35:00,75.7,61.8,30.01,ESE,122,10.0,10.0,62,0.00,,,0.00,Wunderground v.1.15,2013-03-10 20:35:00,
2013-03-10 16:40:00,75.8,63.2,30.01,ESE,123,10.0,10.0,65,0.00,,,0.00,Wunderground v.1.15,2013-03-10 20:40:00,
2013-03-10 16:50:00,75.4,61.9,30.01,East,96,11.0,16.0,63,0.00,,,0.00,Wunderground v.1.15,2013-03-10 20:50:00,
2013-03-10 16:55:00,75.1,62.5,30.01,ESE,113,10.0,16.0,65,0.00,,,0.00,Wunderground v.1.15,2013-03-10 20:55:00,
2013-03-10 17:05:00,75.2,62.2,30.01,East,90,10.0,12.0,64,0.00,,,0.00,Wunderground v.1.15,2013-03-10 21:05:00,
2013-03-10 17:10:00,75.1,63.0,30.01,East,90,10.0,12.0,66,0.00,,,0.00,Wunderground v.1.15,2013-03-10 21:10:00,
2013-03-10 17:20:00,75.6,62.1,30.01,ESE,117,10.0,10.0,63,0.00,,,0.00,Wunderground v.1.15,2013-03-10 21:20:00,
2013-03-10 17:25:00,75.2,62.2,30.01,ESE,107,9.0,16.0,64,0.00,,,0.00,Wunderground v.1.15,2013-03-10 21:25:00,
2013-03-10 17:30:00,74.6,61.6,30.01,East,91,10.0,11.0,64,0.00,,,0.00,Wunderground v.1.15,2013-03-10 21:30:00,
2013-03-10 17:40:00,75.2,63.1,30.01,ESE,103,9.0,10.0,66,0.00,,,0.00,Wunderground v.1.15,2013-03-10 21:40:00,
2013-03-10 17:45:00,75.3,62.7,30.01,ESE,117,8.0,10.0,65,0.00,,,0.00,Wunderground v.1.15,2013-03-10 21:45:00,
2013-03-10 17:50:00,74.8,62.2,30.01,SE,143,9.0,9.0,65,0.00,,,0.00,Wunderground v.1.15,2013-03-10 21:50:00,
2013-03-10 18:00:00,74.6,61.6,30.01,ENE,60,10.0,11.0,64,0.00,,,0.00,Wunderground v.1.15,2013-03-10 22:00:00,
2013-03-10 18:10:00,74.3,62.2,30.01,East,100,10.0,11.0,66,0.00,,,0.00,Wunderground v.1.15,2013-03-10 22:10:00,
2013-03-10 18:15:00,74.3,62.6,30.01,East,86,9.0,11.0,67,0.00,,,0.00,Wunderground v.1.15,2013-03-10 22:15:00,
2013-03-10 18:20:00,74.3,62.6,30.01,East,86,9.0,9.0,67,0.00,,,0.00,Wunderground v.1.15,2013-03-10 22:20:00,
2013-03-10 18:30:00,73.7,62.5,30.02,ENE,69,8.0,13.0,68,0.00,,,0.00,Wunderground v.1.15,2013-03-10 22:30:00,
2013-03-10 18:35:00,73.7,62.1,30.02,ESE,111,9.0,13.0,67,0.00,,,0.00,Wunderground v.1.15,2013-03-10 22:35:00,
2013-03-10 18:45:00,73.3,61.7,30.02,ESE,106,10.0,10.0,67,0.00,,,0.00,Wunderground v.1.15,2013-03-10 22:45:00,
2013-03-10 18:50:00,73.2,62.0,30.02,ENE,69,9.0,9.0,68,0.00,,,0.00,Wunderground v.1.15,2013-03-10 22:50:00,
2013-03-10 18:55:00,73.1,62.3,30.02,ESE,119,8.0,11.0,69,0.00,,,0.00,Wunderground v.1.15,2013-03-10 22:55:00,
2013-03-10 19:00:00,73.0,62.2,30.02,ESE,116,8.0,11.0,69,0.00,,,0.00,Wunderground v.1.15,2013-03-10 23:00:00,
2013-03-10 19:10:00,72.6,61.8,30.02,East,99,9.0,9.0,69,0.00,,,0.00,Wunderground v.1.15,2013-03-10 23:10:00,
2013-03-10 19:15:00,72.4,62.1,30.02,ENE,66,8.0,12.0,70,0.00,,,0.00,Wunderground v.1.15,2013-03-10 23:15:00,
2013-03-10 19:20:00,72.2,61.9,30.02,East,99,8.0,8.0,70,0.00,,,0.00,Wunderground v.1.15,2013-03-10 23:20:00,
2013-03-10 19:30:00,71.8,61.9,30.03,East,86,7.0,7.0,71,0.00,,,0.00,Wunderground v.1.15,2013-03-10 23:30:00,
2013-03-10 19:35:00,71.7,62.2,30.03,East,93,7.0,7.0,72,0.00,,,0.00,Wunderground v.1.15,2013-03-10 23:35:00,
2013-03-10 19:45:00,71.6,62.5,30.03,ENE,77,6.0,9.0,73,0.00,,,0.00,Wunderground v.1.15,2013-03-10 23:45:00,
2013-03-10 19:50:00,71.5,62.8,30.03,SE,128,7.0,7.0,74,0.00,,,0.00,Wunderground v.1.15,2013-03-10 23:50:00,
2013-03-10 20:00:00,71.2,62.1,30.03,East,98,7.0,8.0,73,0.00,,,0.00,Wunderground v.1.15,2013-03-11 00:00:00,
2013-03-10 20:05:00,71.3,62.6,30.03,East,86,6.0,8.0,74,0.00,,,0.00,Wunderground v.1.15,2013-03-11 00:05:00,
2013-03-10 20:10:00,71.2,62.9,30.03,ESE,108,6.0,10.0,75,0.00,,,0.00,Wunderground v.1.15,2013-03-11 00:10:00,
2013-03-10 20:20:00,70.9,62.2,30.03,East,91,8.0,8.0,74,0.00,,,0.00,Wunderground v.1.15,2013-03-11 00:20:00,
2013-03-10 20:25:00,70.8,62.1,30.03,ENE,62,9.0,11.0,74,0.00,,,0.00,Wunderground v.1.15,2013-03-11 00:25:00,
2013-03-10 20:35:00,70.8,62.1,30.03,East,100,7.0,8.0,74,0.00,,,0.00,Wunderground v.1.15,2013-03-11 00:35:00,
2013-03-10 20:40:00,70.8,62.1,30.03,East,97,7.0,7.0,74,0.00,,,0.00,Wunderground v.1.15,2013-03-11 00:40:00,
2013-03-10 20:50:00,70.7,62.4,30.04,East,99,7.0,7.0,75,0.00,,,0.00,Wunderground v.1.15,2013-03-11 00:50:00,
2013-03-10 20:55:00,70.7,62.4,30.04,East,91,7.0,7.0,75,0.00,,,0.00,Wunderground v.1.15,2013-03-11 00:55:00,
2013-03-10 21:00:00,70.7,62.4,30.04,SE,124,8.0,8.0,75,0.00,,,0.00,Wunderground v.1.15,2013-03-11 01:00:00,
2013-03-10 21:10:00,70.7,62.4,30.04,East,94,9.0,9.0,75,0.00,,,0.00,Wunderground v.1.15,2013-03-11 01:10:00,
2013-03-10 21:15:00,70.7,62.4,30.04,East,92,8.0,13.0,75,0.00,,,0.00,Wunderground v.1.15,2013-03-11 01:15:00,
2013-03-10 21:20:00,70.8,62.5,30.05,East,92,8.0,8.0,75,0.00,,,0.00,Wunderground v.1.15,2013-03-11 01:20:00,
2013-03-10 21:30:00,70.9,63.0,30.05,East,87,7.0,11.0,76,0.00,,,0.00,Wunderground v.1.15,2013-03-11 01:30:00,
2013-03-10 21:35:00,70.9,63.0,30.05,East,100,7.0,11.0,76,0.00,,,0.00,Wunderground v.1.15,2013-03-11 01:35:00,
2013-03-10 21:45:00,70.7,62.8,30.05,East,85,8.0,10.0,76,0.00,,,0.00,Wunderground v.1.15,2013-03-11 01:45:00,
2013-03-10 21:50:00,70.7,62.8,30.05,SE,131,8.0,10.0,76,0.00,,,0.00,Wunderground v.1.15,2013-03-11 01:50:00,
2013-03-10 22:00:00,70.7,62.4,30.05,East,88,7.0,9.0,75,0.00,,,0.00,Wunderground v.1.15,2013-03-11 02:00:00,
2013-03-10 22:05:00,70.7,62.8,30.05,ESE,102,7.0,9.0,76,0.00,,,0.00,Wunderground v.1.15,2013-03-11 02:05:00,
2013-03-10 22:10:00,70.8,62.9,30.06,East,86,7.0,12.0,76,0.00,,,0.00,Wunderground v.1.15,2013-03-11 02:10:00,
2013-03-10 22:20:00,70.8,62.9,30.06,East,98,7.0,12.0,76,0.00,,,0.00,Wunderground v.1.15,2013-03-11 02:20:00,
2013-03-10 22:30:00,70.7,62.8,30.06,ENE,77,7.0,8.0,76,0.00,,,0.00,Wunderground v.1.15,2013-03-11 02:30:00,
2013-03-10 22:35:00,70.8,62.9,30.06,ESE,103,7.0,8.0,76,0.00,,,0.00,Wunderground v.1.15,2013-03-11 02:35:00,
2013-03-10 22:45:00,71.0,63.4,30.06,East,90,7.0,7.0,77,0.00,,,0.00,Wunderground v.1.15,2013-03-11 02:45:00,
2013-03-10 22:50:00,71.1,63.5,30.06,ESE,102,7.0,7.0,77,0.00,,,0.00,Wunderground v.1.15,2013-03-11 02:50:00,
2013-03-10 23:00:00,71.2,63.6,30.06,East,92,7.0,7.0,77,0.00,,,0.00,Wunderground v.1.15,2013-03-11 03:00:00,
2013-03-10 23:05:00,71.3,63.7,30.06,East,94,7.0,7.0,77,0.00,,,0.00,Wunderground v.1.15,2013-03-11 03:05:00,
2013-03-10 23:15:00,71.2,63.2,30.06,ESE,117,7.0,8.0,76,0.00,,,0.00,Wunderground v.1.15,2013-03-11 03:15:00,
2013-03-10 23:20:00,71.2,63.2,30.06,East,96,7.0,12.0,76,0.00,,,0.00,Wunderground v.1.15,2013-03-11 03:20:00,
2013-03-10 23:30:00,71.3,63.3,30.06,East,100,8.0,11.0,76,0.00,,,0.00,Wunderground v.1.15,2013-03-11 03:30:00,
2013-03-10 23:40:00,71.3,63.3,30.06,East,84,8.0,8.0,76,0.00,,,0.00,Wunderground v.1.15,2013-03-11 03:40:00,
2013-03-10 23:45:00,71.3,63.0,30.06,ENE,75,8.0,8.0,75,0.00,,,0.00,Wunderground v.1.15,2013-03-11 03:45:00,
2013-03-10 23:50:00,71.2,62.9,30.05,East,86,8.0,8.0,75,0.00,,,0.00,Wunderground v.1.15,2013-03-11 03:50:00,